Location: Moscow
(30.9132°N, 94.8252°W)
Time: 13:12:31
(UTC+00:00)

Cosmos 2251 Rocket - Pass Details

Date: 15 November 2025
Orbit: 760 x 788 km, 74.0° (Epoch: 11 December)

Event Time Altitude Azimuth Distance (km) Brightness Sun altitude
Rises 00:41:34 0° 201° (SSW) 3,215 7.2 -17.2°
Reaches altitude 10° 00:43:56 10° 204° (SSW) 2,296 6.4 -17.7°
Maximum altitude 00:49:07 69° 287° (WNW) 825 3.8 -18.8°
Drops below altitude 10° 00:54:23 10° 11° (N) 2,327 5.8 -19.9°
Enters shadow 00:55:23 - 12° (NNE) 2,715 6.1 -20.1°
